Notices

What's New in latest Release from April 7th, 2021:

- Updated Glossary, including Speed of Maximum Gust, and Total Hourly Precipitation

- Updated national and regional climate services offices contacts and prices information

- Addition of station inventory lists for 1981-2010, 1971-2000, and 1961-1990 Normals.

If you haven't already, please take our survey and provide feedback about our website: https://eccc.sondage-survey.ca/f/LanguageSelection.aspx?s=442ca660-fcf1-47c0-95a9-59707d6fd709

Hourly Data Report for December 21, 2020

MUSKOKA
ONTARIO
Current Station Operator: NAVCAN

44°58'29.000" N
79°18'12.000" W
281.90 m
6115529
71532
YQA

Download Data

Hourly Data (December 2020)
Hourly Data Report for December 21, 2020
TIME
LST
Temp Definition
°C
Dew Point Definition
°C
Rel Hum Definition
%
Precip. Amount Definition
mm

Wind Dir Definition
10's deg

Wind Spd Definition
km/h
Visibility Definition
km
Stn Press Definition
kPa
Hmdx Definition


Wind Chill Definition


Weather Definition


00:00 0.5 -0.2 95 LegendMM 19 9 4.0 97.31     Fog
01:00 0.2 -0.5 95 LegendMM 18 9 4.0 97.28     Fog
02:00 0.1 -0.8 94 LegendMM 19 9 6.4 97.29     Fog
03:00 0.2 -1.1 91 LegendMM 20 11 8.1 97.31     Fog
04:00 -0.3 -1.4 92 LegendMM 19 8 8.1 97.29   -3 Fog
05:00 0.0 -1.8 88 LegendMM 18 13 9.7 97.25   -4 Fog
06:00 -0.1 -2.2 86 LegendMM 16 17 9.7 97.22   -5 Fog
07:00 -0.3 -2.1 88 LegendMM 18 11 9.7 97.23   -4 Fog
08:00 -0.6 -1.9 91 LegendMM 18 15 6.4 97.22   -5 Fog
09:00 -0.8 -1.9 92 LegendMM 16 11 4.8 97.20   -5 Snow
10:00 -0.6 -1.7 92 LegendMM 15 9 4.8 97.20   -4 Fog
11:00 -0.4 -1.7 91 LegendMM 15 9 6.4 97.15   -4 Fog
12:00 0.1 -1.4 90 LegendMM 14 9 6.4 97.05     Fog
13:00 0.3 -1.3 89 LegendMM 16 13 6.4 97.02     Fog
14:00 0.6 -1.2 88 LegendMM 15 9 8.1 96.99     Fog
15:00 0.6 -1.2 88 LegendMM 13 8 8.1 96.99     Fog
16:00 0.6 -1.0 89 LegendMM 13 5 8.1 97.00     Fog
17:00 0.0 -1.1 92 LegendMM 12 4 6.4 97.00   -1 Fog
18:00 -0.4 -1.1 95 LegendMM 14 5 4.8 97.02   -2 Fog
19:00 -0.4 -1.3 94 LegendMM 15 8 4.8 97.02   -3 Fog
20:00 -0.4 -1.1 95 LegendMM LegendMM 4 4.8 97.00   -2 Fog
21:00 -1.2 -1.8 96 LegendMM 17 4 3.6 97.01   -3 Fog
22:00 -0.8 -1.2 97 LegendMM 16 4 3.6 96.98   -2 Fog
23:00 -0.9 -1.3 97 LegendMM   0 2.4 96.98     Fog

Notes on Data Quality.

Legend

  • E = Estimated
  • M = Missing
  • NA = Not Available*
  • [empty] = Indicates an unobserved value
Date modified: